| time (UTC) | temp F | wind direction | speed MPH | gust MPH | rain 1hr in | rain 24hr in | rain mn in | humidity % | barometer mb |
| 20260506233045 | 42 | 39 | 4.0 | 10.0 | 0.00 | 0.22 | 0.00 | 97 | 1011.2 |
| 20260506231543 | 42 | 333 | 1.0 | 10.0 | 0.00 | 0.22 | 0.00 | 97 | 1011.2 |
| 20260506230040 | 42 | 355 | 2.0 | 6.0 | 0.00 | 0.22 | 0.00 | 97 | 1011.1 |
| 20260506224544 | 42 | 17 | 3.0 | 9.0 | 0.01 | 0.24 | 0.00 | 96 | 1011.1 |
| 20260506223037 | 43 | 5 | 3.0 | 8.0 | 0.01 | 0.24 | 0.00 | 96 | 1010.8 |
| 20260506221635 | 43 | 55 | 2.0 | 4.0 | 0.01 | 0.24 | 0.00 | 96 | 1010.7 |
| 20260506220036 | 43 | 32 | 0.0 | 3.0 | 0.01 | 0.24 | 0.00 | 96 | 1010.7 |
| 20260506214531 | 42 | 355 | 3.0 | 8.0 | 0.00 | 0.26 | 0.23 | 96 | 1010.4 |
| 20260506213031 | 42 | 5 | 3.0 | 6.0 | 0.00 | 0.26 | 0.23 | 97 | 1010.3 |
| 20260506211528 | 42 | 347 | 1.0 | 5.0 | 0.00 | 0.26 | 0.23 | 96 | 1010.2 |
| 20260506210033 | 42 | 252 | 1.0 | 6.0 | 0.00 | 0.26 | 0.23 | 96 | 1010.1 |
| 20260506204534 | 42 | 9 | 2.0 | 6.0 | 0.00 | 0.34 | 0.23 | 96 | 1010.0 |
| 20260506203028 | 42 | 355 | 3.0 | 8.0 | 0.00 | 0.34 | 0.23 | 96 | 1010.1 |
| 20260506201526 | 42 | 350 | 3.0 | 9.0 | 0.00 | 0.34 | 0.23 | 96 | 1010.0 |
| 20260506200021 | 42 | 346 | 2.0 | 10.0 | 0.00 | 0.34 | 0.23 | 96 | 1009.9 |
| 20260506194516 | 42 | 355 | 3.0 | 8.0 | 0.00 | 0.37 | 0.23 | 96 | 1009.7 |
| 20260506193017 | 42 | 9 | 2.0 | 6.0 | 0.00 | 0.37 | 0.23 | 96 | 1009.6 |
| 20260506191512 | 42 | 355 | 1.0 | 6.0 | 0.01 | 0.37 | 0.23 | 96 | 1009.4 |
| 20260506190010 | 43 | 341 | 1.0 | 6.0 | 0.01 | 0.37 | 0.23 | 96 | 1009.3 |
| 20260506184509 | 43 | 355 | 1.0 | 8.0 | 0.01 | 0.43 | 0.23 | 96 | 1009.2 |
| 20260506183007 | 43 | 360 | 1.0 | 8.0 | 0.01 | 0.43 | 0.23 | 96 | 1009.2 |
| 20260506181507 | 43 | 351 | 0.0 | 8.0 | 0.00 | 0.42 | 0.22 | 96 | 1009.0 |
| 20260506180007 | 43 | 350 | 2.0 | 5.0 | 0.01 | 0.42 | 0.22 | 96 | 1008.8 |
| 20260506174501 | 43 | 340 | 0.0 | 6.0 | 0.01 | 0.47 | 0.22 | 96 | 1008.7 |
| 20260506173115 | 43 | 321 | 2.0 | 9.0 | 0.01 | 0.47 | 0.22 | 96 | 1008.5 |
| 20260506171601 | 43 | 248 | 2.0 | 4.0 | 0.01 | 0.47 | 0.22 | 96 | 1008.4 |
| 20260506170056 | 43 | 355 | 3.0 | 12.0 | 0.00 | 0.46 | 0.21 | 96 | 1008.4 |
| 20260506164557 | 43 | 13 | 3.0 | 8.0 | 0.00 | 0.55 | 0.21 | 96 | 1008.3 |
| 20260506163054 | 43 | 355 | 2.0 | 10.0 | 0.00 | 0.55 | 0.21 | 96 | 1008.2 |
| 20260506161602 | 43 | 348 | 2.0 | 9.0 | 0.00 | 0.55 | 0.21 | 96 | 1008.1 |
| 20260506160049 | 44 | 189 | 1.0 | 9.0 | 0.00 | 0.55 | 0.21 | 96 | 1008.0 |
| 20260506154547 | 44 | 286 | 2.0 | 8.0 | 0.00 | 0.57 | 0.21 | 96 | 1007.8 |
| 20260506153046 | 44 | 45 | 2.0 | 5.0 | 0.00 | 0.57 | 0.21 | 96 | 1007.8 |
| 20260506151601 | 44 | 296 | 2.0 | 9.0 | 0.00 | 0.57 | 0.21 | 96 | 1007.7 |
| 20260506150045 | 44 | 16 | 1.0 | 8.0 | 0.00 | 0.57 | 0.21 | 96 | 1007.8 |
| 20260506144543 | 43 | 355 | 4.0 | 13.0 | 0.00 | 0.57 | 0.21 | 96 | 1007.7 |
| 20260506143048 | 43 | 19 | 3.0 | 11.0 | 0.00 | 0.57 | 0.21 | 95 | 1007.7 |
| 20260506141539 | 44 | 5 | 2.0 | 9.0 | 0.01 | 0.57 | 0.21 | 96 | 1007.5 |
| 20260506140039 | 44 | 355 | 1.0 | 10.0 | 0.01 | 0.57 | 0.21 | 96 | 1007.5 |
| 20260506134535 | 45 | 348 | 3.0 | 12.0 | 0.01 | 0.57 | 0.21 | 96 | 1007.3 |
| 20260506133039 | 45 | 323 | 1.0 | 9.0 | 0.02 | 0.57 | 0.21 | 96 | 1007.3 |
| 20260506131536 | 45 | 21 | 4.0 | 12.0 | 0.01 | 0.56 | 0.20 | 96 | 1007.2 |
| 20260506130032 | 45 | 345 | 2.0 | 9.0 | 0.01 | 0.56 | 0.20 | 96 | 1007.0 |
| 20260506124530 | 45 | 17 | 4.0 | 8.0 | 0.02 | 0.56 | 0.20 | 96 | 1006.9 |
| 20260506123029 | 45 | 18 | 0.0 | 10.0 | 0.01 | 0.56 | 0.20 | 96 | 1006.9 |
| 20260506121527 | 45 | 5 | 4.0 | 11.0 | 0.02 | 0.56 | 0.20 | 96 | 1006.8 |
| 20260506120025 | 45 | 342 | 3.0 | 10.0 | 0.02 | 0.56 | 0.20 | 96 | 1006.8 |
| 20260506114533 | 46 | 331 | 1.0 | 5.0 | 0.02 | 0.56 | 0.19 | 96 | 1006.6 |
| 20260506113021 | 46 | 5 | 1.0 | 9.0 | 0.02 | 0.56 | 0.19 | 96 | 1006.6 |
| 20260506111519 | 46 | 360 | 2.0 | 6.0 | 0.01 | 0.55 | 0.18 | 96 | 1006.5 |
| 20260506110017 | 45 | 39 | 2.0 | 10.0 | 0.01 | 0.55 | 0.18 | 96 | 1006.4 |
| 20260506104516 | 45 | 344 | 2.0 | 8.0 | 0.00 | 0.54 | 0.17 | 96 | 1006.4 |
| 20260506103017 | 46 | 23 | 3.0 | 9.0 | 0.01 | 0.54 | 0.17 | 96 | 1006.3 |
| 20260506101531 | 46 | 36 | 1.0 | 5.0 | 0.01 | 0.54 | 0.17 | 97 | 1006.1 |
| 20260506100014 | 46 | 28 | 3.0 | 9.0 | 0.01 | 0.54 | 0.17 | 97 | 1006.0 |
| 20260506094517 | 46 | 42 | 1.0 | 10.0 | 0.01 | 0.56 | 0.17 | 96 | 1005.9 |
| 20260506093015 | 46 | 17 | 3.0 | 8.0 | 0.01 | 0.55 | 0.17 | 96 | 1005.8 |
| 20260506091519 | 46 | 339 | 2.0 | 10.0 | 0.02 | 0.55 | 0.17 | 96 | 1005.7 |
| 20260506090013 | 46 | 14 | 3.0 | 8.0 | 0.02 | 0.55 | 0.17 | 96 | 1005.7 |
| 20260506084518 | 46 | 5 | 1.0 | 4.0 | 0.03 | 0.56 | 0.17 | 97 | 1005.6 |
| 20260506083012 | 45 | 26 | 1.0 | 5.0 | 0.02 | 0.56 | 0.16 | 97 | 1005.5 |
| 20260506081512 | 45 | 360 | 1.0 | 5.0 | 0.02 | 0.55 | 0.15 | 96 | 1005.5 |
| 20260506073010 | 44 | 5 | 1.0 | 5.0 | 0.00 | 0.54 | 0.13 | 96 | 1005.2 |
| 20260506071514 | 44 | 29 | 3.0 | 8.0 | 0.01 | 0.54 | 0.13 | 96 | 1005.0 |
| 20260506061504 | 44 | 5 | 1.0 | 6.0 | 0.02 | 0.53 | 0.13 | 96 | 1004.6 |
| 20260506044559 | 45 | 29 | 3.0 | 6.0 | 0.02 | 0.50 | 0.10 | 96 | 1004.6 |
| 20260506043052 | 45 | 45 | 1.0 | 4.0 | 0.03 | 0.50 | 0.10 | 96 | 1004.6 |
| 20260506041603 | 45 | 346 | 2.0 | 5.0 | 0.03 | 0.50 | 0.09 | 96 | 1004.6 |
| 20260506040048 | 45 | 355 | 1.0 | 4.0 | 0.03 | 0.49 | 0.09 | 96 | 1004.6 |
| 20260506034548 | 45 | 9 | 1.0 | 6.0 | 0.04 | 0.49 | 0.08 | 96 | 1004.6 |
| 20260506033046 | 45 | 5 | 3.0 | 5.0 | 0.03 | 0.48 | 0.07 | 96 | 1004.7 |
| 20260506031547 | 46 | 24 | 1.0 | 6.0 | 0.02 | 0.47 | 0.06 | 96 | 1004.7 |
| 20260506030043 | 46 | 360 | 1.0 | 4.0 | 0.02 | 0.46 | 0.06 | 96 | 1004.8 |
| 20260506024543 | 46 | 360 | 1.0 | 3.0 | 0.00 | 0.46 | 0.04 | 96 | 1004.9 |
| 20260506023042 | 46 | 36 | 2.0 | 4.0 | 0.01 | 0.46 | 0.04 | 96 | 1005.0 |
| 20260506021541 | 46 | 355 | 2.0 | 5.0 | 0.01 | 0.46 | 0.04 | 96 | 1004.9 |
| 20260506020038 | 46 | 5 | 3.0 | 5.0 | 0.02 | 0.46 | 0.04 | 96 | 1005.0 |
| 20260506014546 | 46 | 41 | 1.0 | 5.0 | 0.02 | 0.47 | 0.04 | 96 | 1005.2 |
| 20260506013038 | 46 | 30 | 1.0 | 5.0 | 0.01 | 0.46 | 0.03 | 96 | 1005.3 |
| 20260506011539 | 46 | 29 | 2.0 | 5.0 | 0.02 | 0.46 | 0.03 | 96 | 1005.4 |
| 20260506010033 | 46 | 38 | 1.0 | 5.0 | 0.01 | 0.46 | 0.02 | 96 | 1005.4 |
| 20260506004539 | 46 | 13 | 0.0 | 5.0 | 0.01 | 0.46 | 0.02 | 96 | 1005.5 |
| 20260506003030 | 46 | 11 | 2.0 | 5.0 | 0.01 | 0.46 | 0.02 | 96 | 1005.7 |
| 20260506001528 | 46 | 5 | 1.0 | 4.0 | 0.00 | 0.45 | 0.02 | 96 | 1005.8 |
| 20260506000035 | 46 | 36 | 2.0 | 5.0 | 0.00 | 0.45 | 0.02 | 96 | 1005.9 |
| 20260505234524 | 46 | 74 | 1.0 | 5.0 | 0.00 | 0.45 | 0.02 | 96 | 1006.1 |